HST
1 20580U 90037B   24196.93162303  .00007453  00000-0  34636-3 0  9997
2 20580  28.4673 159.1927 0002385 339.6960  20.3537 15.18084588681255
ISS (ZARYA)
1 25544U 98067A   24197.34082122  .00015218  00000-0  27494-3 0  9991
2 25544  51.6398 175.8581 0010644  67.6542  74.6197 15.49865538462914
CXO
1 25867U 99040B   24199.59791054  .00000580  00000-0  00000-0 0  9998
2 25867  41.7638 151.1853 8857581 298.2798   0.4846  0.37808948 14677